STARLINK-5701, 55487

Orbit data source: Space-Track

STARLINK-5701, 55487 is a payload satellite owned by SpaceX/Seattle (US) in LEO that was launched on Thu, 02 Feb 2023 UTC via an FALCON 9 launch vehicle from the Air Force Eastern Test Range (AFETR). Payload-class satellites include a variety of spacecraft equipped with specific instruments for various scientific and technological missions. These include communications satellites like Starlink; space stations such as the ISS; scientific satellites like the Hubble; Earth observation satellites from companies like Planet Labs, Umbra, and HawkEye 360; GPS; miniature CubeSats for education and research; and military/defense satellites.

Loading next visibility...
Identifier
55487, 2023-015AQ
Orbit
LEO
Country
Flag of USUS
Related business
Manufacturer
SpaceX/Seattle
Mission
Operational Commercial Communications
Bus & Motor
STARLINK, Unknown motor
Mass
305 kg wet, ~290 kg dry
Launch date (UTC)
2023-02-02 (3 years ago)
Launch vehicle
FALCON 9
Launch site
Air Force Eastern Test Range (AFETR)
Object type
Payload
Rocket body
Debris
Shape & HBR
Box + 1 Pan, 10.1 m
Radar Cross Section
13.562 m², Large (>1 m²)

Expand to show TLE details & history
Last TLE update: 12 hours ago

TLE from 12 hours ago
0 STARLINK-5701
1 55487U 23015AQ  25288.64271472 -.00000319  00000-0 -85505-5 0  9991
2 55487  43.0054  47.2517 0001076 274.3752  85.6968 15.02527750148781
Epoch: 2025-10-15T15:25Z
TLE epoch observation values (Epoch: 2025-10-15T15:25:30.551Z)
Latitude
0.00001°
Longitude
151.46056°
Altitude
558.827 km
Speed
7.584 km/s
True Right ascension
03h 09m 00s
True Declination
0° 00' 00"
Sunlit
Object was in full shadow at epoch
Visualization orbit readout
Latitude
Unknown
Longitude
Unknown
Altitude
Unknown
Speed
Unknown
Apparent Right ascension
Unknown
Apparent Declination
Unknown
Sunlit
N/A
Visualization observer readout
Local Sidereal Time
21:58:57
Azimuth
Unknown
Elevation
Unknown
Doppler factor
Unknown
Orbital elements
Apogee altitude
561.775 km
Perigee altitude
560.281 km
Semi-major axis
6,939.165 km
Eccentricity
0.00011
Inclination
43.0054°
RAAN
47.2517°
Arg. of periapsis
274.3752°
True anomaly
85.7091°
Mean anomaly
85.6968°
Eccentric anomaly
85.70295°
Mean motion
3.75476 °/min
Orbital period
95.88 mins
BSTAR
-0.0000085505
Loading maneuver chart data...
Computing Atmospheric mass density...
Loading historical data...
Loading historical data...
Loading historical data...
Loading historical data...
Loading historical data...
Loading historical data...
Loading historical data...

Documentation

Showing up to 5 results
|